Accueil
METAR-TAF:

METAR-TAF

Aéroports :

Aéroport de Dijon-Bourgogne

Dijon, France

latitude: 47-16N, longitude: 005-05E, altitude: 222 m

Observation

Le bulletin a été fait il y a 24 minutes, à 11:00 UTC
Vent 4 kt de sud/sud-est, variant entre est et sud
Température 9°C
Humidité 71%
Pression 1029 hPa
Visibilité: 8000 m

METAR: LFSD 161100Z AUTO 15004KT 100V190 8000 NSC 09/04 Q1029

Heure: 12:24 (11:24 UTC)


TAF: absent

Observations et prévisions météorologiques de plus de 4000 aéroports (messages METAR et TAF).

Les stations disponibles sont représentées par des disques jaunes et rouges sur la carte.

Passer la souris dessus pour voir le nom de la station.

Cliquer dessus pour voir les observations et prévisions météorologiques.

Pour changer de carte: cliquez sur les boutons verts avec une croix noire pour zoomer, sur le bouton vert avec un tiret pour effectuer un zoom arrière, ou sur les flèches vertes pour les cartes adjacentes.


METAR-TAF: